TimeCST,TemperatureF,Dew PointF,Humidity,Sea Level PressureIn,VisibilityMPH,Wind Direction,Wind SpeedMPH,Gust SpeedMPH,PrecipitationIn,Events,Conditions,WindDirDegrees,DateUTC
12:15 AM,59.0,59.0,100,30.16,4.0,Calm,Calm,-,N/A,,Mostly Cloudy,0,2012-11-23 06:15:00
12:35 AM,57.2,57.2,100,30.16,2.0,Calm,Calm,-,N/A,,Overcast,0,2012-11-23 06:35:00
12:55 AM,57.2,57.2,100,30.16,1.8,Calm,Calm,-,N/A,,Overcast,0,2012-11-23 06:55:00
1:15 AM,57.2,57.2,100,30.16,1.5,Calm,Calm,-,N/A,,Overcast,0,2012-11-23 07:15:00
1:35 AM,57.2,57.2,100,30.16,1.8,Calm,Calm,-,N/A,,Overcast,0,2012-11-23 07:35:00
1:55 AM,57.2,57.2,100,30.16,0.2,Calm,Calm,-,N/A,Fog,Fog,0,2012-11-23 07:55:00
2:15 AM,55.4,55.4,100,30.17,0.2,Calm,Calm,-,N/A,Fog,Fog,0,2012-11-23 08:15:00
2:35 AM,55.4,55.4,100,30.17,0.2,Calm,Calm,-,N/A,Fog,Fog,0,2012-11-23 08:35:00
2:55 AM,57.2,57.2,100,30.17,1.8,Calm,Calm,-,N/A,,Overcast,0,2012-11-23 08:55:00
3:15 AM,57.2,57.2,100,30.17,3.0,Calm,Calm,-,N/A,,Overcast,0,2012-11-23 09:15:00
3:35 AM,57.2,57.2,100,30.17,3.0,Calm,Calm,-,N/A,,Overcast,0,2012-11-23 09:35:00
3:55 AM,57.2,57.2,100,30.17,4.0,Calm,Calm,-,N/A,,Overcast,0,2012-11-23 09:55:00
4:15 AM,57.2,57.2,100,30.17,3.0,Calm,Calm,-,N/A,,Overcast,0,2012-11-23 10:15:00
4:35 AM,59.0,59.0,100,30.17,6.0,SE,3.5,-,N/A,,Overcast,140,2012-11-23 10:35:00
4:55 AM,59.0,59.0,100,30.17,5.0,Calm,Calm,-,N/A,,Overcast,0,2012-11-23 10:55:00
5:15 AM,60.8,60.8,100,30.18,7.0,Calm,Calm,-,N/A,,Overcast,0,2012-11-23 11:15:00
5:35 AM,59.0,59.0,100,30.18,6.0,Calm,Calm,-,N/A,,Overcast,0,2012-11-23 11:35:00
6:15 AM,59.0,59.0,100,30.20,7.0,Calm,Calm,-,N/A,,Overcast,0,2012-11-23 12:15:00
6:35 AM,59.0,59.0,100,30.20,5.0,Calm,Calm,-,N/A,,Overcast,0,2012-11-23 12:35:00
6:55 AM,59.0,59.0,100,30.21,5.0,Calm,Calm,-,N/A,,Mostly Cloudy,0,2012-11-23 12:55:00
7:15 AM,59.0,59.0,100,30.22,4.0,Calm,Calm,-,N/A,,Mostly Cloudy,0,2012-11-23 13:15:00
7:35 AM,59.0,59.0,100,30.22,3.0,Calm,Calm,-,N/A,,Overcast,0,2012-11-23 13:35:00
7:55 AM,62.6,62.6,100,30.23,4.0,Calm,Calm,-,N/A,,Overcast,0,2012-11-23 13:55:00
8:15 AM,64.4,64.4,100,30.24,6.0,Calm,Calm,-,N/A,,Overcast,0,2012-11-23 14:15:00
8:35 AM,64.4,64.4,100,30.24,8.0,Calm,Calm,-,N/A,,Overcast,0,2012-11-23 14:35:00
8:55 AM,66.2,64.4,94,30.25,9.0,Calm,Calm,-,N/A,,Overcast,0,2012-11-23 14:55:00
9:15 AM,68.0,62.6,83,30.25,10.0,Calm,Calm,-,N/A,,Mostly Cloudy,0,2012-11-23 15:15:00
9:35 AM,71.6,62.6,73,30.26,10.0,Calm,Calm,-,N/A,,Mostly Cloudy,0,2012-11-23 15:35:00
9:55 AM,73.4,62.6,69,30.26,10.0,Calm,Calm,-,N/A,,Partly Cloudy,0,2012-11-23 15:55:00
10:15 AM,75.2,62.6,65,30.26,10.0,Calm,Calm,-,N/A,,Scattered Clouds,0,2012-11-23 16:15:00
10:35 AM,75.2,62.6,65,30.26,10.0,SSW,6.9,-,N/A,,Mostly Cloudy,200,2012-11-23 16:35:00
10:55 AM,75.2,62.6,65,30.26,10.0,SW,8.1,-,N/A,,Overcast,230,2012-11-23 16:55:00
11:15 AM,75.2,62.6,65,30.26,10.0,SW,5.8,-,N/A,,Overcast,230,2012-11-23 17:15:00
11:35 AM,75.2,62.6,65,30.25,10.0,SW,4.6,-,N/A,,Mostly Cloudy,230,2012-11-23 17:35:00
12:15 PM,77.0,62.6,61,30.23,10.0,SW,9.2,-,N/A,,Mostly Cloudy,220,2012-11-23 18:15:00
12:35 PM,77.0,62.6,61,30.23,10.0,West,5.8,-,N/A,,Overcast,270,2012-11-23 18:35:00
12:55 PM,75.2,64.4,69,30.22,10.0,WSW,12.7,17.3,N/A,,Overcast,250,2012-11-23 18:55:00
1:15 PM,73.4,68.0,83,30.22,8.0,Calm,Calm,-,N/A,Rain,Light Rain,0,2012-11-23 19:15:00
1:35 PM,69.8,66.2,88,30.22,1.8,West,3.5,16.1,0.01,Rain,Rain,280,2012-11-23 19:35:00
1:55 PM,71.6,68.0,88,30.21,10.0,WNW,10.4,-,0.01,,Mostly Cloudy,290,2012-11-23 19:55:00
2:15 PM,73.4,66.2,78,30.21,10.0,NNW,12.7,16.1,N/A,,Overcast,330,2012-11-23 20:15:00
2:35 PM,73.4,64.4,73,30.21,10.0,NNW,10.4,-,N/A,,Mostly Cloudy,340,2012-11-23 20:35:00
2:55 PM,73.4,64.4,73,30.21,10.0,NNW,10.4,-,N/A,,Mostly Cloudy,340,2012-11-23 20:55:00
3:15 PM,71.6,62.6,73,30.21,9.0,NNW,13.8,-,N/A,,Overcast,340,2012-11-23 21:15:00
3:35 PM,69.8,62.6,78,30.22,10.0,NNW,11.5,-,N/A,,Overcast,340,2012-11-23 21:35:00
3:55 PM,69.8,62.6,78,30.22,10.0,North,16.1,20.7,N/A,,Overcast,350,2012-11-23 21:55:00
4:15 PM,68.0,62.6,83,30.23,9.0,North,16.1,-,N/A,,Overcast,350,2012-11-23 22:15:00
4:35 PM,68.0,62.6,83,30.24,8.0,North,12.7,-,N/A,,Overcast,350,2012-11-23 22:35:00
4:55 PM,68.0,62.6,83,30.24,7.0,North,16.1,23.0,N/A,,Overcast,360,2012-11-23 22:55:00
5:15 PM,68.0,60.8,78,30.25,8.0,North,13.8,19.6,N/A,,Overcast,10,2012-11-23 23:15:00
5:35 PM,66.2,60.8,83,30.26,10.0,North,10.4,-,N/A,,Overcast,360,2012-11-23 23:35:00
5:55 PM,66.2,60.8,83,30.27,10.0,North,8.1,-,N/A,,Overcast,360,2012-11-23 23:55:00
6:15 PM,66.2,60.8,83,30.28,10.0,North,9.2,-,N/A,,Overcast,360,2012-11-24 00:15:00
6:35 PM,66.2,59.0,78,30.29,10.0,North,12.7,17.3,N/A,,Overcast,350,2012-11-24 00:35:00
6:55 PM,64.4,59.0,83,30.30,9.0,North,12.7,-,N/A,,Overcast,360,2012-11-24 00:55:00
7:15 PM,64.4,60.8,88,30.31,5.0,NNW,15.0,-,N/A,,Overcast,340,2012-11-24 01:15:00
7:35 PM,62.6,60.8,94,30.32,5.0,North,15.0,19.6,N/A,,Mostly Cloudy,350,2012-11-24 01:35:00
7:55 PM,60.8,60.8,100,30.32,5.0,North,12.7,-,N/A,,Mostly Cloudy,10,2012-11-24 01:55:00
8:15 PM,62.6,60.8,94,30.32,7.0,North,10.4,-,N/A,,Overcast,360,2012-11-24 02:15:00
8:35 PM,62.6,59.0,88,30.33,7.0,North,11.5,-,N/A,,Overcast,350,2012-11-24 02:35:00
8:55 PM,60.8,59.0,94,30.34,7.0,North,11.5,16.1,N/A,,Overcast,360,2012-11-24 02:55:00
9:15 PM,60.8,57.2,88,30.34,8.0,North,12.7,19.6,N/A,,Overcast,10,2012-11-24 03:15:00
9:35 PM,60.8,57.2,88,30.34,9.0,North,9.2,-,N/A,,Overcast,360,2012-11-24 03:35:00
9:55 PM,60.8,53.6,77,30.36,10.0,North,9.2,-,N/A,,Overcast,360,2012-11-24 03:55:00
10:15 PM,60.8,51.8,72,30.35,10.0,North,9.2,-,N/A,,Overcast,350,2012-11-24 04:15:00
10:35 PM,60.8,53.6,77,30.35,10.0,North,4.6,-,N/A,,Overcast,350,2012-11-24 04:35:00
10:55 PM,60.8,53.6,77,30.35,10.0,North,6.9,-,N/A,,Overcast,350,2012-11-24 04:55:00
11:15 PM,59.0,51.8,77,30.36,10.0,NNW,8.1,-,N/A,,Overcast,340,2012-11-24 05:15:00
11:35 PM,60.8,50.0,68,30.35,10.0,North,13.8,17.3,N/A,,Overcast,350,2012-11-24 05:35:00
11:55 PM,59.0,48.2,67,30.35,10.0,North,11.5,-,N/A,,Overcast,350,2012-11-24 05:55:00